Time,TemperatureF,DewpointF,PressureIn,WindDirection,WindDirectionDegrees,WindSpeedMPH,WindSpeedGustMPH,Humidity,HourlyPrecipIn,Conditions,Clouds,dailyrainin,SoftwareType,DateUTC
2013-06-07 00:04:00,51.7,50.6,30.06,NW,314,0.0,2.0,96,0.00,-RA,OVC,0.00,WeatherDisplay:10.37,2013-06-07 04:04:00,
2013-06-07 00:09:00,51.7,50.6,30.06,NNW,338,0.0,2.0,96,0.00,-RA,OVC,0.00,WeatherDisplay:10.37,2013-06-07 04:09:00,
2013-06-07 00:14:00,51.7,50.6,30.06,NNW,348,0.0,2.0,96,0.00,-RA,OVC,0.00,WeatherDisplay:10.37,2013-06-07 04:14:00,
2013-06-07 00:19:00,51.7,50.6,30.06,NW,312,0.0,1.0,96,0.01,-RA,OVC,0.01,WeatherDisplay:10.37,2013-06-07 04:19:00,
2013-06-07 00:24:00,51.8,51.2,30.06,NNW,327,0.0,1.0,98,0.00,-RA,OVC,0.01,WeatherDisplay:10.37,2013-06-07 04:24:00,
2013-06-07 00:29:00,51.8,51.0,30.06,North,4,0.0,0.0,97,0.00,-RA,OVC,0.01,WeatherDisplay:10.37,2013-06-07 04:29:00,
2013-06-07 00:34:00,51.8,51.8,30.06,NNE,15,0.0,0.0,100,0.00,-RA,OVC,0.01,WeatherDisplay:10.37,2013-06-07 04:34:00,
2013-06-07 00:39:00,51.8,51.8,30.06,NNE,29,0.0,0.0,100,0.00,-RA,OVC,0.01,WeatherDisplay:10.37,2013-06-07 04:39:00,
2013-06-07 00:44:00,51.8,51.8,30.06,NE,38,0.0,0.0,100,0.00,-RA,OVC,0.01,WeatherDisplay:10.37,2013-06-07 04:44:00,
2013-06-07 00:49:00,51.9,51.9,30.06,NE,50,0.0,1.0,100,0.00,-RA,OVC,0.01,WeatherDisplay:10.37,2013-06-07 04:49:00,
2013-06-07 00:54:00,51.9,51.9,30.06,North,3,0.0,0.0,100,0.00,-RA,OVC,0.01,WeatherDisplay:10.37,2013-06-07 04:54:00,
2013-06-07 00:59:00,51.9,51.9,30.05,NNE,17,0.0,5.0,100,0.00,-RA,OVC,0.01,WeatherDisplay:10.37,2013-06-07 04:59:00,
2013-06-07 01:04:00,52.0,52.0,30.05,East,80,0.0,3.0,100,0.01,-RA,OVC,0.02,WeatherDisplay:10.37,2013-06-07 05:04:00,
2013-06-07 01:09:00,52.0,52.0,30.05,ENE,58,0.0,0.0,100,0.00,-RA,OVC,0.02,WeatherDisplay:10.37,2013-06-07 05:09:00,
2013-06-07 01:14:00,52.0,52.0,30.05,ENE,70,0.0,2.0,100,0.00,-RA,OVC,0.02,WeatherDisplay:10.37,2013-06-07 05:14:00,
2013-06-07 01:19:00,52.0,52.0,30.04,East,90,0.0,0.0,100,0.00,-RA,OVC,0.02,WeatherDisplay:10.37,2013-06-07 05:19:00,
2013-06-07 01:24:00,52.0,52.0,30.04,East,83,0.0,0.0,100,0.00,-RA,OVC,0.02,WeatherDisplay:10.37,2013-06-07 05:24:00,
2013-06-07 01:29:00,52.0,52.0,30.04,ENE,75,0.0,3.0,100,0.00,-RA,OVC,0.02,WeatherDisplay:10.37,2013-06-07 05:29:00,
2013-06-07 01:34:00,52.1,52.1,30.04,NE,51,0.0,0.0,100,0.00,-RA,OVC,0.02,WeatherDisplay:10.37,2013-06-07 05:34:00,
2013-06-07 01:39:00,52.1,52.1,30.03,North,1,0.0,1.0,100,0.00,-RA,OVC,0.02,WeatherDisplay:10.37,2013-06-07 05:39:00,
2013-06-07 01:44:00,52.1,52.1,30.03,NW,314,0.0,1.0,100,0.01,-RA,OVC,0.02,WeatherDisplay:10.37,2013-06-07 05:44:00,
2013-06-07 01:49:00,52.1,52.1,30.03,East,85,0.0,0.0,100,0.00,-RA,OVC,0.02,WeatherDisplay:10.37,2013-06-07 05:49:00,
2013-06-07 01:54:00,52.1,52.1,30.02,East,97,0.0,5.0,100,0.00,-RA,OVC,0.02,WeatherDisplay:10.37,2013-06-07 05:54:00,
2013-06-07 01:59:00,52.2,52.2,30.02,NNE,18,0.0,0.0,100,0.00,-RA,OVC,0.02,WeatherDisplay:10.37,2013-06-07 05:59:00,
2013-06-07 02:04:00,52.2,52.2,30.02,NE,52,0.0,2.0,100,0.00,-RA,OVC,0.02,WeatherDisplay:10.37,2013-06-07 06:04:00,
2013-06-07 02:09:00,52.2,52.2,30.01,East,99,0.0,4.0,100,0.00,-RA,OVC,0.02,WeatherDisplay:10.37,2013-06-07 06:09:00,
2013-06-07 02:14:00,52.3,52.3,30.01,East,80,0.0,3.0,100,0.00,-RA,OVC,0.02,WeatherDisplay:10.37,2013-06-07 06:14:00,
2013-06-07 02:19:00,52.3,52.3,30.01,East,81,0.0,4.0,100,0.00,-RA,OVC,0.02,WeatherDisplay:10.37,2013-06-07 06:19:00,
2013-06-07 02:24:00,52.3,52.3,30.01,ENE,77,0.0,0.0,100,0.01,-RA,OVC,0.03,WeatherDisplay:10.37,2013-06-07 06:24:00,
2013-06-07 02:29:00,52.4,52.4,30.01,ENE,59,0.0,3.0,100,0.00,-RA,OVC,0.03,WeatherDisplay:10.37,2013-06-07 06:29:00,
2013-06-07 02:34:00,52.4,52.4,30.01,NE,37,0.0,1.0,100,0.00,-RA,OVC,0.03,WeatherDisplay:10.37,2013-06-07 06:34:00,
2013-06-07 02:39:00,52.5,52.5,30.01,SE,140,0.0,3.0,100,0.00,-RA,OVC,0.03,WeatherDisplay:10.37,2013-06-07 06:39:00,
2013-06-07 02:44:00,52.5,52.5,30.01,East,98,0.0,7.0,100,0.00,-RA,OVC,0.03,WeatherDisplay:10.37,2013-06-07 06:44:00,
2013-06-07 02:49:00,52.5,52.5,30.01,ENE,64,0.0,4.0,100,0.00,-RA,OVC,0.03,WeatherDisplay:10.37,2013-06-07 06:49:00,
2013-06-07 02:54:00,52.6,52.6,30.01,NE,36,0.0,3.0,100,0.00,-RA,OVC,0.03,WeatherDisplay:10.37,2013-06-07 06:54:00,
2013-06-07 02:59:00,52.6,52.6,30.01,NE,47,0.0,2.0,100,0.00,-RA,OVC,0.03,WeatherDisplay:10.37,2013-06-07 06:59:00,
2013-06-07 03:04:00,52.6,52.6,30.01,NE,46,0.0,2.0,100,0.00,-RA,OVC,0.03,WeatherDisplay:10.37,2013-06-07 07:04:00,
2013-06-07 03:09:00,52.6,52.6,30.00,East,90,0.0,3.0,100,0.01,-RA,OVC,0.04,WeatherDisplay:10.37,2013-06-07 07:09:00,
2013-06-07 03:14:00,52.7,52.7,30.00,East,97,0.0,4.0,100,0.00,-RA,OVC,0.04,WeatherDisplay:10.37,2013-06-07 07:14:00,
2013-06-07 03:19:00,52.6,52.6,30.01,East,101,0.0,3.0,100,0.00,-RA,OVC,0.04,WeatherDisplay:10.37,2013-06-07 07:19:00,
2013-06-07 03:24:00,52.7,52.7,30.00,SE,128,0.0,0.0,100,0.00,-RA,OVC,0.04,WeatherDisplay:10.37,2013-06-07 07:24:00,
2013-06-07 03:29:00,52.7,52.7,30.00,East,100,0.0,3.0,100,0.00,-RA,OVC,0.04,WeatherDisplay:10.37,2013-06-07 07:29:00,
2013-06-07 03:34:00,52.7,52.7,30.00,SSE,161,0.0,5.0,100,0.00,-RA,OVC,0.04,WeatherDisplay:10.37,2013-06-07 07:34:00,
2013-06-07 03:39:00,52.7,52.7,30.00,South,169,1.0,2.0,100,0.00,-RA,OVC,0.04,WeatherDisplay:10.37,2013-06-07 07:39:00,
2013-06-07 03:44:00,52.7,52.7,30.00,East,95,1.0,4.0,100,0.00,-RA,OVC,0.05,WeatherDisplay:10.37,2013-06-07 07:44:00,
2013-06-07 03:49:00,52.7,52.7,29.99,ENE,61,0.0,1.0,100,0.01,-RA,OVC,0.05,WeatherDisplay:10.37,2013-06-07 07:49:00,
2013-06-07 03:54:00,52.7,52.7,29.99,NE,34,0.0,3.0,100,0.00,-RA,OVC,0.05,WeatherDisplay:10.37,2013-06-07 07:54:00,
2013-06-07 03:59:00,52.7,52.7,29.99,East,94,1.0,5.0,100,0.00,-RA,OVC,0.05,WeatherDisplay:10.37,2013-06-07 07:59:00,